Regional Weather Roundup
Issued by NWS Wilmington, NC

Home | Current Version | Previous Version | Text Only | Print | Product List | Glossary On
Versions: 1 2 3 4 5 6 7 8 9 10 11 12 13 14 15 16 17 18 19 20 21 22 23 24 25 26 27
000
ASUS42 KILM 241713
RWRILM
RWRILM
REGIONAL HOURLY WEATHER ROUNDUP
NATIONAL WEATHER SERVICE WILMINGTON NC
100 PM EDT TUE APR 24 2018

NOTE: "FAIR" INDICATES FEW OR NO CLOUDS BELOW 12,000 FEET WITH NO
SIGNIFICANT WEATHER AND/OR OBSTRUCTIONS TO VISIBILITY.

...............WFO WILMINGTON COUNTY WARNING AREA...............

......COASTAL NC AND SC COUNTIES......

CITY           SKY/WX    TMP DP  RH WIND       PRES   REMARKS
WILMINGTON     CLOUDY    63  60  90 E13G18    29.92F
N MYRTLE BEACH CLOUDY    68  65  90 SE8       29.88F
MYRTLE BEACH   FAIR      73  64  73 S12       29.88F

......INLAND NC AND SC COUNTIES.......

CITY           SKY/WX    TMP DP  RH WIND       PRES   REMARKS
LUMBERTON      CLOUDY    71  67  87 SE9       29.85F
ELIZABETHTOWN  CLOUDY    69  64  84 MISG      29.89F
WHITEVILLE     CLOUDY    70  67  90 SE10      29.88F
FLORENCE       PTSUNNY   77  60  55 S15       29.83F
DARLINGTON     FAIR      72  64  78 SE7       29.84F
KINGSTREE      FAIR      75  57  53 SE10      29.83F
HARTSVILLE     PTSUNNY   70  64  83 SE5       29.84F
BENNETTSVILLE  CLOUDY    70  70 100 CALM      29.85F
CONWAY         FAIR      77  61  57 S9        29.85F
GEORGETOWN     PTSUNNY   73  64  73 S10       29.87F
MARION         PTSUNNY   77  59  53 S15       29.84F

....................REST OF NORTH CAROLINA......................

.........EASTERN NC.........

CITY           SKY/WX    TMP DP  RH WIND       PRES   REMARKS
CAPE HATTERAS  RAIN      63  62  97 SE28G45   30.06F FOG
JACKSONVILLE   CLOUDY    62  60  93 E7        29.94F
MOREHEAD CITY  HVY RAIN  61  60  97 NE12      29.98F FOG
KENANSVILLE    CLOUDY    63  61  94 SE5       29.94F
NEW BERN       HVY RAIN  60  60 100 SE6       29.98F FOG
ELIZABETH CITY LGT RAIN  60  59  96 E20G32    30.09F FOG

.........CENTRAL NC.........

CITY           SKY/WX    TMP DP  RH WIND       PRES   REMARKS
RALEIGH DURHAM LGT RAIN  60  59  96 E15       29.94F FOG
ROCKY MOUNT    LGT RAIN  60  59  96 E9        29.94F FOG
ROANOKE RAPIDS NOT AVBL
FAYETTEVILLE   CLOUDY    65  62  90 E12       29.88F
HOFFMAN        LGT RAIN  64  63  94 SE9       29.87S

.........WESTERN NC.........

CITY           SKY/WX    TMP DP  RH WIND       PRES   REMARKS
CHARLOTTE      CLOUDY    66  63  90 E12       29.86F
GREENSBORO     LGT RAIN  59  58  96 E16       29.91F FOG
HICKORY        NOT AVBL
BOONE          NOT AVBL
ASHEVILLE      NOT AVBL

.....................REST OF SOUTH CAROLINA.....................

.........EASTERN SC.........

CITY           SKY/WX    TMP DP  RH WIND       PRES   REMARKS
CHARLESTON     FAIR      76  60  57 S10       29.84F
BEAUFORT MCAS  FAIR      74  61  63 SW12      29.86F
HILTON HEAD    MOSUNNY   70  63  78 S10       29.88F

.........CENTRAL SC.........

CITY           SKY/WX    TMP DP  RH WIND       PRES   REMARKS
COLUMBIA       FAIR      77  57  50 S12       29.81F
ORANGEBURG     FAIR      74  57  55 SW9G17    29.84F
SUMTER SHAW    PTSUNNY   75  60  58 S6        29.80F

.........WESTERN SC.........

CITY           SKY/WX    TMP DP  RH WIND       PRES   REMARKS
GREENVILLE     NOT AVBL
ROCK HILL      CLOUDY    69  64  84 CALM      29.84F
ANDERSON       CLOUDY    65  59  81 NE3       29.83F
CLEMSON        NOT AVBL
GREENWOOD      FAIR      71  61  70 VRB7      29.83F


...................COASTAL AND OFFSHORE REPORTS..................

................LOCAL PIERS AND NC RESERVE................


STATION/POSITION TIME  SKY/WX   TEMP    WIND        PRES    VSBY
                                AIR SEA DIR/SP/G
                 (UTC)          (F)     (DEG/KT/KT) (MB)    (MI)
JOHNY MRCER PIER 1648            61 63  120/ 14/ 16 1013.7F
NC RESRV MASNBRO NOT AVBL
OCEAN CREST PIER NOT AVBL
SPRINGMAID  PIER 1648                               1014.8F


................COASTAL AND OFFSHORE BUOYS................


STATION/POSITION TIME  SKY/WX   TEMP    WIND        PRES    VSBY
                                AIR SEA DIR/SP/G
                 (UTC)          (F)     (DEG/KT/KT) (MB)    (MI)
DIMNDSHOAL 41025 1700            67 71  130/ 29/ 39 1017.6
CAPE LOOKOUT     1600                   120/ 27/ 32 1016.0
ONSLOW BAY 41036 NOT AVBL
ONSLOW BAY 41064 NOT AVBL
ONSLOW BAY 41159 1700               65                N/A
WVE H/P(F/S)= 15/10 SWL H/P/D(F/S/D)=  5/140/11

MASNBO INL 41110 1700               61                N/A
WVE H/P(F/S)= 10/10 SWL H/P/D(F/S/D)=  3/130/11

WILM HARBR 41108 1700               61                N/A
WVE H/P(F/S)= 10/10 SWL H/P/D(F/S/D)=  5/150/11

27SE WRITB 41037 1608            62 65  130/ 14/ 21 1015.3F
FRYING PAN 41013 1700            71 70  140/ 25/ 31 1011.9
SUNST NRSH 41024 1608            63 63  100/ 17/ 21 1012.2F
CAPRS NRSH 41029 1608            65 65  200/  8/ 12 1010.7F
EDISTO     41004 1650               69  210/ 10/ 14 1012.2F
WVE H/P(F/S)= 10/11 SWL H/P/D(F/S/D)= 10/120/11



..........OFFSHORE BUOYS BEYOND 100 NM OFFSHORE...........
.....IN A TRIANGLE---HAT TO BERMUDA TO BAHAMAS TO HAT.....


STATION/POSITION TIME  SKY/WX   TEMP    WIND        PRES    VSBY
                                AIR SEA DIR/SP/G
                 (UTC)          (F)     (DEG/KT/KT) (MB)    (MI)
150E HAT   41001 NOT AVBL
W BERMUDA  41048 1700               70  120/ 21/ 25 1024.5
ATLANTIC S 41049 1700               76   60/ 17/ 21 1022.8
E BAHAMAS  41046 1700               79  100/ 14/ 17 1019.7
NE BAHAMAS 41047 1650                   120/ 17/ 21 1020.0F
WVE H/P(F/S)=  6/ 8 SWL H/P/D(F/S/D)=  2/ 60/14

120E CANVRL41010 1700            76 75  240/  6/ 10 1014.6

END




USA.gov is the U.S. government's official web portal to all federal, state and local government web resources and services.